1579820405,2020-01-24 00:00,82.96,1006.46,1024.53,150,0.66,-1.90,-80,1
1579820465,2020-01-24 00:01,82.79,1006.47,1024.54,150,0.68,-1.91,-81,1
1579820525,2020-01-24 00:02,82.75,1006.42,1024.49,150,0.70,-1.90,-82,1
1579820585,2020-01-24 00:03,83.13,1006.41,1024.48,150,0.70,-1.84,-81,1
1579820645,2020-01-24 00:04,82.82,1006.39,1024.46,150,0.72,-1.87,-80,1
1579820705,2020-01-24 00:05,83.03,1006.37,1024.44,150,0.73,-1.82,-80,1
1579820765,2020-01-24 00:06,82.66,1006.33,1024.40,150,0.75,-1.86,-83,1
1579820825,2020-01-24 00:07,82.89,1006.32,1024.40,150,0.76,-1.82,-81,1
1579820885,2020-01-24 00:08,83.09,1006.31,1024.38,150,0.76,-1.78,-80,1
1579820945,2020-01-24 00:09,82.96,1006.31,1024.39,150,0.78,-1.79,-81,1
1579821005,2020-01-24 00:10,82.66,1006.30,1024.37,150,0.80,-1.81,-81,1
1579821065,2020-01-24 00:11,82.82,1006.31,1024.38,150,0.81,-1.78,-81,1
1579821125,2020-01-24 00:12,83.20,1006.30,1024.37,150,0.79,-1.74,-84,1
1579821185,2020-01-24 00:13,83.07,1006.25,1024.32,150,0.80,-1.75,-81,1
1579821245,2020-01-24 00:14,82.88,1006.23,1024.30,150,0.82,-1.76,-81,1
1579821305,2020-01-24 00:15,83.01,1006.20,1024.28,150,0.81,-1.75,-80,1
1579821365,2020-01-24 00:16,82.64,1006.18,1024.25,150,0.84,-1.78,-81,1
1579821425,2020-01-24 00:17,82.59,1006.20,1024.27,150,0.85,-1.78,-80,1
1579821486,2020-01-24 00:18,82.25,1006.22,1024.29,150,0.88,-1.80,-82,1
1579821546,2020-01-24 00:19,82.59,1006.14,1024.22,150,0.89,-1.74,-79,1
1579821606,2020-01-24 00:20,82.78,1006.12,1024.20,150,0.87,-1.73,-82,1
1579821666,2020-01-24 00:21,82.57,1006.12,1024.20,150,0.90,-1.73,-80,1
1579821726,2020-01-24 00:22,82.58,1006.09,1024.16,150,0.91,-1.72,-82,1
1579821786,2020-01-24 00:23,82.79,1006.09,1024.16,150,0.90,-1.70,-83,1
1579821846,2020-01-24 00:24,82.86,1006.09,1024.17,150,0.91,-1.67,-80,1
1579821906,2020-01-24 00:25,82.85,1006.13,1024.20,150,0.92,-1.66,-81,1
1579821966,2020-01-24 00:26,82.49,1006.10,1024.18,150,0.94,-1.70,-84,1
1579822026,2020-01-24 00:27,82.71,1006.07,1024.14,150,0.77,-1.83,-82,1
1579822086,2020-01-24 00:28,82.46,1006.06,1024.13,150,0.95,-1.70,-83,1
1579822146,2020-01-24 00:29,82.75,1006.06,1024.13,150,0.95,-1.65,-82,1
1579822206,2020-01-24 00:30,82.82,1006.05,1024.13,150,0.95,-1.64,-79,1
1579822266,2020-01-24 00:31,82.90,1006.07,1024.15,150,0.96,-1.62,-80,1
1579822326,2020-01-24 00:32,82.90,1006.04,1024.11,150,0.97,-1.61,-81,1
1579822386,2020-01-24 00:33,82.93,1006.06,1024.14,150,0.96,-1.61,-81,1
1579822446,2020-01-24 00:34,82.60,1006.04,1024.11,150,0.97,-1.66,-84,1
1579822506,2020-01-24 00:35,82.95,1006.03,1024.10,150,0.97,-1.60,-80,1
1579822566,2020-01-24 00:36,83.03,1006.04,1024.11,150,0.97,-1.59,-82,1
1579822626,2020-01-24 00:37,82.73,1006.02,1024.09,150,0.91,-1.69,-83,1
1579822686,2020-01-24 00:38,82.84,1006.01,1024.08,150,0.98,-1.61,-80,1
1579822746,2020-01-24 00:39,82.95,1006.02,1024.09,150,0.99,-1.58,-84,1
1579822806,2020-01-24 00:40,83.02,1005.95,1024.02,150,0.99,-1.57,-83,1
1579822866,2020-01-24 00:41,82.75,1005.93,1024.01,150,1.01,-1.59,-82,1
1579822926,2020-01-24 00:42,82.72,1005.91,1023.98,150,1.01,-1.60,-84,1
1579822986,2020-01-24 00:43,82.45,1005.87,1023.94,150,1.01,-1.64,-81,1
1579823047,2020-01-24 00:44,82.59,1005.89,1023.97,150,1.03,-1.60,-83,1
1579823107,2020-01-24 00:45,82.57,1005.89,1023.96,150,1.02,-1.61,-81,1
1579823167,2020-01-24 00:46,82.61,1005.87,1023.95,150,1.04,-1.59,-84,1
1579823227,2020-01-24 00:47,82.71,1005.84,1023.91,150,1.05,-1.56,-80,1
1579823287,2020-01-24 00:48,82.85,1005.86,1023.93,150,1.05,-1.54,-81,1
1579823347,2020-01-24 00:49,82.47,1005.85,1023.92,150,1.07,-1.58,-81,1
1579823407,2020-01-24 00:50,82.76,1005.82,1023.90,150,1.07,-1.53,-81,1
1579823467,2020-01-24 00:51,82.92,1005.81,1023.88,150,1.06,-1.52,-82,1
1579823527,2020-01-24 00:52,82.60,1005.81,1023.89,150,1.07,-1.56,-81,1
1579823587,2020-01-24 00:53,82.39,1005.76,1023.83,150,1.09,-1.58,-83,1
1579823647,2020-01-24 00:54,82.90,1005.73,1023.80,150,1.07,-1.51,-81,1
1579823707,2020-01-24 00:55,82.50,1005.77,1023.85,150,1.09,-1.56,-80,1
1579823767,2020-01-24 00:56,82.42,1005.71,1023.79,150,1.09,-1.57,-80,1
1579823827,2020-01-24 00:57,82.67,1005.71,1023.78,150,1.08,-1.54,-82,1
1579823887,2020-01-24 00:58,82.67,1005.76,1023.83,150,1.10,-1.52,-80,1
1579823947,2020-01-24 00:59,82.80,1005.73,1023.80,150,1.08,-1.52,-80,1
1579824007,2020-01-24 01:00,82.72,1005.75,1023.82,150,1.11,-1.50,-80,1
1579824067,2020-01-24 01:01,82.83,1005.70,1023.78,150,1.11,-1.48,-81,1
1579824127,2020-01-24 01:02,82.90,1005.72,1023.79,150,1.10,-1.48,-80,1
1579824187,2020-01-24 01:03,82.76,1005.67,1023.74,150,1.11,-1.49,-80,1
1579824247,2020-01-24 01:04,82.67,1005.62,1023.69,150,1.12,-1.50,-82,1
1579824307,2020-01-24 01:05,82.84,1005.57,1023.64,150,1.12,-1.47,-80,1
1579824367,2020-01-24 01:06,82.90,1005.60,1023.67,150,1.11,-1.47,-81,1
1579824428,2020-01-24 01:07,82.76,1005.57,1023.65,150,1.12,-1.48,-80,1
1579824488,2020-01-24 01:08,82.23,1005.51,1023.58,150,1.16,-1.53,-84,1
1579824548,2020-01-24 01:09,82.62,1005.54,1023.61,150,1.14,-1.49,-80,1
1579824608,2020-01-24 01:10,82.43,1005.53,1023.61,150,1.16,-1.50,-80,1
1579824668,2020-01-24 01:11,82.39,1005.51,1023.59,150,1.16,-1.51,-85,1
1579824728,2020-01-24 01:12,82.35,1005.44,1023.51,150,1.18,-1.49,-82,1
1579824788,2020-01-24 01:13,82.75,1005.46,1023.54,150,1.15,-1.46,-81,1
1579824848,2020-01-24 01:14,82.80,1005.38,1023.45,150,1.17,-1.43,-80,1
1579824908,2020-01-24 01:15,82.31,1005.42,1023.50,150,1.18,-1.50,-80,1
1579824968,2020-01-24 01:16,82.68,1005.37,1023.44,150,1.19,-1.43,-84,1
1579825028,2020-01-24 01:17,82.72,1005.34,1023.42,150,1.16,-1.45,-81,1
1579825088,2020-01-24 01:18,82.93,1005.29,1023.37,150,1.12,-1.46,-80,1
1579825148,2020-01-24 01:19,82.84,1005.31,1023.38,150,1.18,-1.41,-80,1
1579825208,2020-01-24 01:20,82.85,1005.28,1023.35,150,1.19,-1.40,-81,1
1579825268,2020-01-24 01:21,83.12,1005.29,1023.37,150,1.16,-1.39,-81,1
1579825328,2020-01-24 01:22,83.13,1005.26,1023.34,150,1.18,-1.37,-80,1
1579825388,2020-01-24 01:23,83.19,1005.26,1023.33,150,1.19,-1.34,-81,1
1579825448,2020-01-24 01:24,83.11,1005.20,1023.27,150,1.18,-1.37,-82,1
1579825508,2020-01-24 01:25,83.05,1005.24,1023.31,150,1.19,-1.37,-82,1
1579825568,2020-01-24 01:26,82.77,1005.21,1023.28,150,1.20,-1.40,-81,1
1579825628,2020-01-24 01:27,83.27,1005.25,1023.32,150,1.20,-1.32,-84,1
1579825688,2020-01-24 01:28,83.50,1005.24,1023.31,150,1.16,-1.32,-83,1
1579825748,2020-01-24 01:29,83.41,1005.22,1023.29,150,1.19,-1.31,-79,1
1579825808,2020-01-24 01:30,83.39,1005.23,1023.31,150,1.20,-1.30,-82,1
1579825868,2020-01-24 01:31,83.75,1005.21,1023.28,150,1.20,-1.24,-80,1
1579825928,2020-01-24 01:32,83.54,1005.17,1023.24,150,1.21,-1.27,-83,1
1579825989,2020-01-24 01:33,83.81,1005.21,1023.28,150,1.20,-1.23,-81,1
1579826049,2020-01-24 01:34,84.00,1005.20,1023.27,150,1.15,-1.25,-80,1
1579826109,2020-01-24 01:35,83.88,1005.22,1023.29,150,1.20,-1.22,-80,1
1579826169,2020-01-24 01:36,83.86,1005.20,1023.27,150,1.21,-1.22,-81,1
1579826229,2020-01-24 01:37,83.89,1005.19,1023.26,150,1.21,-1.21,-81,1
1579826289,2020-01-24 01:38,84.00,1005.17,1023.24,150,1.21,-1.19,-80,1
1579826349,2020-01-24 01:39,83.86,1005.19,1023.26,150,1.22,-1.21,-81,1
1579826409,2020-01-24 01:40,83.86,1005.12,1023.19,150,1.21,-1.22,-81,1
1579826469,2020-01-24 01:41,83.91,1005.12,1023.19,150,1.21,-1.21,-82,1
1579826529,2020-01-24 01:42,84.08,1005.09,1023.17,150,1.21,-1.18,-83,1
1579826589,2020-01-24 01:43,84.07,1005.12,1023.19,150,1.20,-1.19,-83,1
1579826649,2020-01-24 01:44,84.30,1005.14,1023.21,150,1.18,-1.17,-80,1
1579826709,2020-01-24 01:45,84.10,1005.12,1023.19,150,1.21,-1.18,-81,1
1579826769,2020-01-24 01:46,83.82,1005.08,1023.15,150,1.23,-1.20,-81,1
1579826829,2020-01-24 01:47,84.06,1005.10,1023.17,150,1.23,-1.16,-80,1
1579826889,2020-01-24 01:48,84.50,1005.09,1023.16,150,1.19,-1.13,-83,1
1579826949,2020-01-24 01:49,84.06,1005.09,1023.16,150,1.23,-1.16,-80,1
1579827009,2020-01-24 01:50,84.40,1005.03,1023.11,150,1.23,-1.11,-81,1
1579827069,2020-01-24 01:51,84.49,1005.08,1023.16,150,1.22,-1.10,-80,1
1579827129,2020-01-24 01:52,83.87,1005.06,1023.13,150,1.23,-1.19,-80,1
1579827189,2020-01-24 01:53,84.07,1005.05,1023.12,150,1.23,-1.16,-82,1
1579827249,2020-01-24 01:54,84.47,1005.06,1023.13,150,1.21,-1.12,-80,1
1579827309,2020-01-24 01:55,84.17,1005.03,1023.10,150,1.23,-1.15,-80,1
1579827370,2020-01-24 01:56,83.88,1005.04,1023.11,150,1.24,-1.18,-81,1
1579827430,2020-01-24 01:57,84.40,1005.01,1023.08,150,1.22,-1.12,-83,1
1579827490,2020-01-24 01:58,84.48,1005.03,1023.10,150,1.20,-1.12,-83,1
1579827550,2020-01-24 01:59,84.16,1005.05,1023.13,150,1.23,-1.15,-81,1
1579827610,2020-01-24 02:00,84.19,1005.01,1023.08,150,1.22,-1.15,-81,1
1579827670,2020-01-24 02:01,84.21,1005.05,1023.12,150,1.23,-1.14,-81,1
1579827730,2020-01-24 02:02,84.24,1005.03,1023.10,150,1.23,-1.13,-84,1
1579827790,2020-01-24 02:03,84.17,1005.04,1023.11,150,1.21,-1.17,-84,1
1579827850,2020-01-24 02:04,84.21,1005.06,1023.13,150,1.23,-1.14,-83,1
1579827910,2020-01-24 02:05,83.85,1005.03,1023.11,150,1.25,-1.18,-82,1
1579827970,2020-01-24 02:06,84.09,1005.03,1023.10,150,1.24,-1.15,-83,1
1579828030,2020-01-24 02:07,83.81,1005.01,1023.08,150,1.25,-1.18,-81,1
1579828090,2020-01-24 02:08,83.98,1004.99,1023.06,150,1.25,-1.16,-80,1
1579828150,2020-01-24 02:09,83.88,1004.98,1023.05,150,1.26,-1.16,-82,1
1579828210,2020-01-24 02:10,83.83,1004.95,1023.02,150,1.28,-1.15,-80,1
1579828270,2020-01-24 02:11,83.90,1004.93,1023.01,150,1.27,-1.15,-81,1
1579828330,2020-01-24 02:12,83.90,1004.93,1023.01,150,1.27,-1.15,-81,1
1579828390,2020-01-24 02:13,83.45,1004.98,1023.05,150,1.30,-1.19,-80,1
1579828450,2020-01-24 02:14,83.53,1004.94,1023.02,150,1.30,-1.18,-83,1
1579828510,2020-01-24 02:15,83.62,1004.91,1022.99,150,1.30,-1.17,-81,1
1579828570,2020-01-24 02:16,83.61,1004.88,1022.95,150,1.29,-1.18,-83,1
1579828630,2020-01-24 02:17,83.60,1004.86,1022.93,150,1.30,-1.17,-80,1
1579828690,2020-01-24 02:18,83.55,1004.82,1022.89,150,1.31,-1.17,-82,1
1579828750,2020-01-24 02:19,83.62,1004.83,1022.90,150,1.31,-1.16,-80,1
1579828811,2020-01-24 02:20,83.56,1004.79,1022.87,150,1.32,-1.16,-81,1
1579828871,2020-01-24 02:21,83.46,1004.79,1022.86,150,1.32,-1.17,-80,1
1579828931,2020-01-24 02:22,83.44,1004.79,1022.86,150,1.32,-1.18,-80,1
1579828991,2020-01-24 02:23,83.44,1004.75,1022.82,150,1.33,-1.17,-81,1
1579829051,2020-01-24 02:24,83.25,1004.77,1022.84,150,1.34,-1.19,-81,1
1579829111,2020-01-24 02:25,83.51,1004.78,1022.85,150,1.33,-1.16,-80,1
1579829171,2020-01-24 02:26,83.22,1004.76,1022.83,150,1.34,-1.19,-79,1
1579829231,2020-01-24 02:27,83.36,1004.71,1022.78,150,1.35,-1.16,-81,1
1579829291,2020-01-24 02:28,83.08,1004.70,1022.77,150,1.36,-1.20,-81,1
1579829351,2020-01-24 02:29,83.27,1004.70,1022.77,150,1.35,-1.18,-81,1
1579829411,2020-01-24 02:30,83.42,1004.71,1022.78,150,1.34,-1.16,-80,1
1579829471,2020-01-24 02:31,83.15,1004.66,1022.73,150,1.36,-1.18,-84,1
1579829531,2020-01-24 02:32,83.12,1004.66,1022.73,150,1.37,-1.18,-81,1
1579829591,2020-01-24 02:33,83.21,1004.68,1022.75,150,1.35,-1.19,-81,1
1579829651,2020-01-24 02:34,83.13,1004.67,1022.74,150,1.36,-1.19,-81,1
1579829711,2020-01-24 02:35,83.18,1004.60,1022.67,150,1.35,-1.19,-81,1
1579829771,2020-01-24 02:36,83.39,1004.62,1022.69,150,1.37,-1.14,-80,1
1579829831,2020-01-24 02:37,83.02,1004.61,1022.68,150,1.38,-1.19,-84,1
1579829891,2020-01-24 02:38,83.08,1004.63,1022.71,150,1.38,-1.18,-82,1
1579829951,2020-01-24 02:39,83.00,1004.59,1022.67,150,1.39,-1.18,-81,1
1579830011,2020-01-24 02:40,83.32,1004.59,1022.67,150,1.38,-1.14,-82,1
1579830071,2020-01-24 02:41,83.30,1004.53,1022.60,150,1.37,-1.15,-83,1
1579830131,2020-01-24 02:42,83.17,1004.53,1022.60,150,1.37,-1.17,-82,1
1579830191,2020-01-24 02:43,83.39,1004.49,1022.57,150,1.38,-1.13,-83,1
1579830252,2020-01-24 02:44,83.15,1004.49,1022.56,150,1.39,-1.16,-82,1
1579830312,2020-01-24 02:45,82.84,1004.47,1022.54,150,1.41,-1.19,-80,1
1579830372,2020-01-24 02:46,83.12,1004.42,1022.50,150,1.22,-1.33,-81,1
1579830432,2020-01-24 02:47,83.08,1004.43,1022.50,150,1.40,-1.16,-83,1
1579830492,2020-01-24 02:48,83.24,1004.43,1022.50,150,1.41,-1.12,-81,1
1579830552,2020-01-24 02:49,82.95,1004.43,1022.50,150,1.41,-1.17,-82,1
1579830612,2020-01-24 02:50,82.94,1004.48,1022.55,150,1.41,-1.17,-80,1
1579830672,2020-01-24 02:51,82.96,1004.51,1022.58,150,1.43,-1.15,-81,1
1579830732,2020-01-24 02:52,83.39,1004.47,1022.55,150,1.41,-1.10,-82,1
1579830792,2020-01-24 02:53,83.57,1004.45,1022.52,150,1.41,-1.07,-81,1
1579830852,2020-01-24 02:54,83.61,1004.48,1022.55,150,1.41,-1.06,-82,1
1579830912,2020-01-24 02:55,83.54,1004.43,1022.50,150,1.42,-1.06,-81,1
1579830972,2020-01-24 02:56,83.72,1004.47,1022.54,150,1.42,-1.03,-81,1
1579831032,2020-01-24 02:57,83.84,1004.37,1022.44,150,1.42,-1.01,-82,1
1579831092,2020-01-24 02:58,84.05,1004.36,1022.43,150,1.41,-0.99,-85,1
1579831152,2020-01-24 02:59,83.92,1004.35,1022.42,150,1.41,-1.01,-81,1
1579831212,2020-01-24 03:00,83.82,1004.34,1022.41,150,1.42,-1.02,-83,1
1579831272,2020-01-24 03:01,84.16,1004.36,1022.43,150,1.41,-0.97,-82,1
1579831332,2020-01-24 03:02,84.40,1004.32,1022.39,150,1.39,-0.95,-82,1
1579831392,2020-01-24 03:03,84.60,1004.33,1022.40,150,1.39,-0.92,-81,1
1579831452,2020-01-24 03:04,84.89,1004.35,1022.43,150,1.40,-0.86,-82,1
1579831512,2020-01-24 03:05,84.88,1004.29,1022.36,150,1.39,-0.87,-81,1
1579831572,2020-01-24 03:06,84.82,1004.29,1022.37,150,1.39,-0.88,-80,1
1579831633,2020-01-24 03:07,84.45,1004.32,1022.39,150,1.40,-0.93,-83,1
1579831693,2020-01-24 03:08,85.27,1004.27,1022.34,150,1.36,-0.84,-81,1
1579831753,2020-01-24 03:09,85.01,1004.29,1022.36,150,1.36,-0.88,-82,1
1579831813,2020-01-24 03:10,84.96,1004.25,1022.32,150,1.36,-0.89,-84,1
1579831873,2020-01-24 03:11,85.01,1004.25,1022.33,150,1.36,-0.88,-82,1
1579831933,2020-01-24 03:12,85.14,1004.25,1022.32,150,1.34,-0.88,-86,1
1579831993,2020-01-24 03:13,85.23,1004.23,1022.31,150,1.32,-0.89,-84,1
1579832053,2020-01-24 03:14,85.19,1004.22,1022.29,150,1.33,-0.88,-82,1
1579832113,2020-01-24 03:15,85.13,1004.19,1022.26,150,1.33,-0.89,-82,1
1579832173,2020-01-24 03:16,85.06,1004.26,1022.33,150,1.33,-0.90,-82,1
1579832233,2020-01-24 03:17,85.33,1004.24,1022.31,150,1.29,-0.90,-81,1
1579832293,2020-01-24 03:18,84.96,1004.26,1022.33,150,1.32,-0.93,-83,1
1579832353,2020-01-24 03:19,85.30,1004.27,1022.34,150,1.31,-0.89,-81,1
1579832413,2020-01-24 03:20,85.23,1004.23,1022.30,150,1.32,-0.89,-81,1
1579832473,2020-01-24 03:21,84.94,1004.24,1022.32,150,1.32,-0.93,-84,1
1579832533,2020-01-24 03:22,85.13,1004.18,1022.26,150,1.31,-0.91,-82,1
1579832593,2020-01-24 03:23,84.86,1004.22,1022.29,150,1.32,-0.95,-83,1
1579832653,2020-01-24 03:24,85.13,1004.23,1022.31,150,1.30,-0.92,-81,1
1579832713,2020-01-24 03:25,85.06,1004.23,1022.30,150,1.31,-0.92,-81,1
1579832773,2020-01-24 03:26,85.20,1004.21,1022.28,150,1.29,-0.92,-80,1
1579832833,2020-01-24 03:27,84.63,1004.21,1022.28,150,1.33,-0.97,-83,1
1579832893,2020-01-24 03:28,84.98,1004.16,1022.23,150,1.31,-0.94,-81,1
1579832953,2020-01-24 03:29,84.77,1004.18,1022.25,150,1.32,-0.96,-82,1
1579833013,2020-01-24 03:30,85.17,1004.17,1022.25,150,1.30,-0.92,-81,1
1579833074,2020-01-24 03:31,84.80,1004.15,1022.23,150,1.31,-0.97,-81,1
1579833134,2020-01-24 03:32,84.51,1004.14,1022.21,150,1.33,-0.99,-81,1
1579833194,2020-01-24 03:33,85.10,1004.12,1022.19,150,1.33,-0.90,-80,1
1579833254,2020-01-24 03:34,85.05,1004.12,1022.20,150,1.32,-0.92,-82,1
1579833314,2020-01-24 03:35,85.25,1004.08,1022.15,150,1.31,-0.89,-80,1
1579833374,2020-01-24 03:36,84.82,1004.10,1022.17,150,1.34,-0.93,-80,1
1579833434,2020-01-24 03:37,85.22,1004.11,1022.18,150,1.32,-0.89,-86,1
1579833494,2020-01-24 03:38,84.69,1004.09,1022.16,150,1.35,-0.94,-81,1
1579833554,2020-01-24 03:39,84.77,1004.07,1022.15,150,1.34,-0.94,-80,1
1579833614,2020-01-24 03:40,84.57,1004.06,1022.13,150,1.36,-0.95,-83,1
1579833674,2020-01-24 03:41,85.03,1004.09,1022.16,150,1.32,-0.92,-81,1
1579833734,2020-01-24 03:42,85.08,1004.09,1022.17,150,1.32,-0.91,-80,1
1579833794,2020-01-24 03:43,84.99,1004.09,1022.17,150,1.34,-0.91,-83,1
1579833854,2020-01-24 03:44,84.85,1004.09,1022.16,150,1.32,-0.95,-80,1
1579833914,2020-01-24 03:45,84.90,1004.05,1022.12,150,1.34,-0.92,-82,1
1579833974,2020-01-24 03:46,84.49,1004.08,1022.15,150,1.36,-0.97,-85,1
1579834034,2020-01-24 03:47,84.55,1004.04,1022.11,150,1.37,-0.95,-81,1
1579834094,2020-01-24 03:48,84.99,1004.00,1022.07,150,1.36,-0.89,-83,1
1579834154,2020-01-24 03:49,85.15,1004.03,1022.11,150,1.34,-0.88,-83,1
1579834214,2020-01-24 03:50,84.78,1004.04,1022.11,150,1.36,-0.92,-82,1
1579834274,2020-01-24 03:51,85.23,1004.04,1022.11,150,1.34,-0.87,-83,1
1579834334,2020-01-24 03:52,84.80,1004.06,1022.13,150,1.36,-0.92,-81,1
1579834394,2020-01-24 03:53,84.94,1004.07,1022.14,150,1.28,-0.97,-83,1
1579834454,2020-01-24 03:54,84.85,1004.09,1022.16,150,1.35,-0.92,-84,1
1579834515,2020-01-24 03:55,84.84,1004.07,1022.14,150,1.35,-0.92,-83,1
1579834575,2020-01-24 03:56,84.79,1004.06,1022.13,150,1.35,-0.93,-82,1
1579834635,2020-01-24 03:57,85.04,1004.08,1022.15,150,1.35,-0.89,-82,1
1579834695,2020-01-24 03:58,84.84,1004.03,1022.11,150,1.36,-0.91,-82,1
1579834755,2020-01-24 03:59,85.40,1004.00,1022.08,150,1.33,-0.85,-81,1
1579834815,2020-01-24 04:00,84.99,1004.09,1022.16,150,1.36,-0.89,-82,1
1579834875,2020-01-24 04:01,85.65,1004.09,1022.16,150,1.32,-0.82,-81,1
1579834935,2020-01-24 04:02,85.52,1004.06,1022.13,150,1.32,-0.84,-81,1
1579834995,2020-01-24 04:03,85.42,1004.03,1022.11,150,1.34,-0.84,-82,1
1579835055,2020-01-24 04:04,85.34,1004.04,1022.11,150,1.34,-0.85,-83,1
1579835115,2020-01-24 04:05,85.77,1004.03,1022.10,150,1.31,-0.81,-80,1
1579835175,2020-01-24 04:06,85.47,1003.98,1022.05,150,1.33,-0.84,-83,1
1579835235,2020-01-24 04:07,85.49,1003.96,1022.03,150,1.32,-0.85,-80,1
1579835295,2020-01-24 04:08,85.37,1003.97,1022.04,150,1.33,-0.85,-81,1
1579835355,2020-01-24 04:09,85.05,1003.92,1021.99,150,1.34,-0.90,-82,1
1579835415,2020-01-24 04:10,85.20,1003.89,1021.96,150,1.33,-0.88,-83,1
1579835475,2020-01-24 04:11,85.13,1003.86,1021.94,150,1.33,-0.89,-83,1
1579835535,2020-01-24 04:12,85.41,1003.92,1021.99,150,1.30,-0.88,-85,1
1579835595,2020-01-24 04:13,85.42,1003.85,1021.93,150,1.31,-0.87,-82,1
1579835655,2020-01-24 04:14,85.62,1003.85,1021.93,150,1.31,-0.83,-82,1
1579835715,2020-01-24 04:15,85.85,1003.85,1021.92,150,1.30,-0.81,-82,1
1579835775,2020-01-24 04:16,85.92,1003.84,1021.91,150,1.30,-0.80,-80,1
1579835835,2020-01-24 04:17,85.94,1003.77,1021.84,150,1.30,-0.79,-79,1
1579835895,2020-01-24 04:18,86.04,1003.81,1021.88,150,1.31,-0.77,-82,1
1579835955,2020-01-24 04:19,86.00,1003.77,1021.84,150,1.32,-0.76,-81,1
1579836016,2020-01-24 04:20,86.37,1003.78,1021.85,150,1.30,-0.72,-81,1
1579836076,2020-01-24 04:21,86.49,1003.77,1021.84,150,1.29,-0.72,-84,1
1579836136,2020-01-24 04:22,86.65,1003.74,1021.82,150,1.30,-0.68,-81,1
1579836196,2020-01-24 04:23,86.02,1003.73,1021.80,150,1.29,-0.79,-81,1
1579836256,2020-01-24 04:24,86.19,1003.76,1021.83,150,1.29,-0.76,-81,1
1579836316,2020-01-24 04:25,86.01,1003.74,1021.81,150,1.30,-0.78,-82,1
1579836376,2020-01-24 04:26,86.04,1003.70,1021.77,150,1.30,-0.78,-80,1
1579836436,2020-01-24 04:27,86.17,1003.71,1021.79,150,1.29,-0.77,-82,1
1579836496,2020-01-24 04:28,85.73,1003.68,1021.76,150,1.30,-0.83,-81,1
1579836556,2020-01-24 04:29,86.02,1003.69,1021.76,150,1.29,-0.79,-80,1
1579836616,2020-01-24 04:30,86.08,1003.66,1021.73,150,1.29,-0.78,-80,1
1579836676,2020-01-24 04:31,86.02,1003.67,1021.74,150,1.29,-0.79,-83,1
1579836736,2020-01-24 04:32,86.39,1003.62,1021.70,150,1.27,-0.75,-81,1
1579836796,2020-01-24 04:33,86.34,1003.58,1021.65,150,1.28,-0.75,-81,1
1579836856,2020-01-24 04:34,86.11,1003.59,1021.66,150,1.28,-0.79,-81,1
1579836916,2020-01-24 04:35,86.14,1003.64,1021.71,150,1.28,-0.78,-81,1
1579836976,2020-01-24 04:36,86.09,1003.58,1021.65,150,1.28,-0.79,-82,1
1579837036,2020-01-24 04:37,86.79,1003.60,1021.67,150,1.24,-0.72,-83,1
1579837096,2020-01-24 04:38,86.35,1003.55,1021.63,150,1.25,-0.78,-81,1
1579837156,2020-01-24 04:39,86.73,1003.58,1021.65,150,1.24,-0.73,-82,1
1579837216,2020-01-24 04:40,87.20,1003.56,1021.63,150,1.22,-0.67,-81,1
1579837276,2020-01-24 04:41,86.81,1003.59,1021.66,150,1.22,-0.73,-85,1
1579837336,2020-01-24 04:42,87.22,1003.55,1021.63,150,1.21,-0.68,-83,1
1579837396,2020-01-24 04:43,86.85,1003.56,1021.63,150,1.21,-0.74,-83,1
1579837456,2020-01-24 04:44,86.77,1003.52,1021.59,150,1.23,-0.73,-81,1
1579837517,2020-01-24 04:45,87.02,1003.53,1021.60,150,1.21,-0.71,-80,1
1579837577,2020-01-24 04:46,87.36,1003.51,1021.58,150,1.19,-0.68,-82,1
1579837637,2020-01-24 04:47,86.77,1003.48,1021.55,150,1.20,-0.76,-79,1
1579837697,2020-01-24 04:48,87.19,1003.46,1021.53,150,1.21,-0.68,-80,1
1579837757,2020-01-24 04:49,86.93,1003.44,1021.52,150,1.20,-0.73,-83,1
1579837817,2020-01-24 04:50,87.08,1003.45,1021.52,150,1.18,-0.73,-84,1
1579837877,2020-01-24 04:51,86.77,1003.40,1021.47,150,1.19,-0.77,-82,1
1579837937,2020-01-24 04:52,86.66,1003.36,1021.44,150,1.19,-0.79,-81,1
1579837997,2020-01-24 04:53,87.00,1003.36,1021.43,150,1.19,-0.73,-81,1
1579838057,2020-01-24 04:54,86.78,1003.35,1021.42,150,1.19,-0.77,-81,1
1579838117,2020-01-24 04:55,86.71,1003.34,1021.42,150,1.19,-0.78,-82,1
1579838177,2020-01-24 04:56,86.51,1003.43,1021.50,150,1.20,-0.80,-83,1
1579838237,2020-01-24 04:57,86.63,1003.38,1021.45,150,1.19,-0.79,-82,1
1579838297,2020-01-24 04:58,87.04,1003.36,1021.43,150,1.19,-0.73,-84,1
1579838357,2020-01-24 04:59,87.09,1003.30,1021.37,150,1.19,-0.72,-83,1
1579838417,2020-01-24 05:00,87.03,1003.30,1021.38,150,1.18,-0.74,-83,1
1579838477,2020-01-24 05:01,87.13,1003.28,1021.35,150,1.19,-0.71,-82,1
1579838537,2020-01-24 05:02,87.13,1003.29,1021.36,150,1.19,-0.71,-81,1
1579838597,2020-01-24 05:03,87.21,1003.26,1021.33,150,1.19,-0.70,-82,1
1579838657,2020-01-24 05:04,87.18,1003.27,1021.34,150,1.18,-0.72,-83,1
1579838718,2020-01-24 05:05,87.07,1003.26,1021.33,150,1.17,-0.74,-83,1
1579838778,2020-01-24 05:06,86.83,1003.25,1021.32,150,1.17,-0.78,-84,1
1579838838,2020-01-24 05:07,87.15,1003.28,1021.35,150,1.17,-0.73,-85,1
1579838898,2020-01-24 05:08,87.25,1003.27,1021.34,150,1.17,-0.71,-84,1
1579838958,2020-01-24 05:09,86.97,1003.23,1021.30,150,1.19,-0.74,-81,1
1579839018,2020-01-24 05:10,86.98,1003.27,1021.34,150,1.19,-0.74,-81,1
1579839078,2020-01-24 05:11,86.97,1003.27,1021.35,150,1.18,-0.75,-83,1
1579839138,2020-01-24 05:12,87.08,1003.29,1021.36,150,1.17,-0.74,-83,1
1579839198,2020-01-24 05:13,86.88,1003.28,1021.36,150,1.19,-0.75,-82,1
1579839258,2020-01-24 05:14,87.12,1003.27,1021.34,150,1.18,-0.72,-80,1
1579839318,2020-01-24 05:15,86.72,1003.36,1021.43,150,1.21,-0.76,-83,1
1579839378,2020-01-24 05:16,86.45,1003.31,1021.38,150,1.22,-0.79,-83,1
1579839438,2020-01-24 05:17,86.83,1003.32,1021.39,150,1.21,-0.74,-84,1
1579839498,2020-01-24 05:18,86.80,1003.39,1021.46,150,1.20,-0.75,-81,1
1579839558,2020-01-24 05:19,87.12,1003.38,1021.45,150,1.19,-0.71,-83,1
1579839618,2020-01-24 05:20,87.03,1003.36,1021.43,150,1.18,-0.74,-84,1
1579839678,2020-01-24 05:21,86.72,1003.40,1021.48,150,1.21,-0.76,-83,1
1579839738,2020-01-24 05:22,86.92,1003.46,1021.53,150,1.21,-0.73,-81,1
1579839798,2020-01-24 05:23,86.74,1003.41,1021.48,150,1.21,-0.75,-83,1
1579839858,2020-01-24 05:24,87.10,1003.40,1021.47,150,1.17,-0.74,-81,1
1579839918,2020-01-24 05:25,87.20,1003.40,1021.47,150,1.19,-0.70,-85,1
1579839978,2020-01-24 05:26,87.05,1003.44,1021.51,150,1.19,-0.73,-85,1
1579840038,2020-01-24 05:27,87.13,1003.38,1021.45,150,1.19,-0.71,-82,1
1579840098,2020-01-24 05:28,86.74,1003.40,1021.47,150,1.22,-0.74,-84,1
1579840158,2020-01-24 05:29,87.15,1003.40,1021.47,150,1.20,-0.70,-84,1
1579840219,2020-01-24 05:30,87.14,1003.38,1021.46,150,1.20,-0.70,-83,1
1579840279,2020-01-24 05:31,87.24,1003.39,1021.47,150,1.20,-0.69,-81,1
1579840339,2020-01-24 05:32,87.25,1003.42,1021.49,150,1.21,-0.67,-83,1
1579840399,2020-01-24 05:33,87.52,1003.41,1021.48,150,1.17,-0.67,-81,1
1579840459,2020-01-24 05:34,87.51,1003.41,1021.48,150,1.19,-0.65,-80,1
1579840519,2020-01-24 05:35,87.43,1003.38,1021.45,150,1.20,-0.66,-82,1
1579840579,2020-01-24 05:36,87.42,1003.40,1021.47,150,1.20,-0.66,-81,1
1579840639,2020-01-24 05:37,87.71,1003.36,1021.43,150,1.18,-0.63,-82,1